[[{"header":{"parameterUnit":"m.s-1","parameterCategory":1,"la1":30.2991,"la2":30.254,"lo1":-89.0895,"lo2":-89.0444,"dy":0.0017,"dx":0.0017,"nx":28,"ny":28,"refTime":"2023-09-30T03:00:00:Z","depth":0,"parameterNumber":2,"parameterNumberName":"U-component_of_WINDS"},"data":[0,0,0,0,0,0,0,0,0,0,0,0,0,0,0,0,0,0,0,0,0,0,0,0,0,0,0,0,0,0,0,0,0,0,0,0,0,0,0,0,0,0,0,0,0,0,0,0,0,0,0,0,0,0,0,0,0,0,-4.0731,-4.073,0,-4.0694,-4.0694,-4.0693,-4.0511,-4.0507,-4.0503,-4.0499,-4.0462,-4.0465,-4.0468,0,0,0,0,0,0,0,0,0,0,0,0,0,-4.0646,-4.0648,-4.0731,-4.073,-4.073,-4.0694,-4.0694,-4.0693,-4.0512,-4.0507,-4.0502,-4.0497,-4.0461,-4.0465,-4.0469,0,0,0,0,0,0,0,0,0,0,0,0,0,-4.0653,-4.0649,-4.0731,-4.0635,-4.0626,-4.0694,-4.0694,-4.0693,-4.0513,-4.0507,-4.05,-4.0494,-4.046,-4.0465,-4.0469,-4.0627,0,0,-4.0483,-4.0485,0,0,0,0,0,0,0,0,-4.0653,-4.0657,-4.065,-4.0642,-4.0632,-4.06,-4.065,-4.0671,-4.0515,-4.0556,-4.0498,-4.0491,-4.0514,-4.0513,-4.0521,-4.0625,-4.0623,-4.0483,-4.0486,-4.0488,-4.0489,0,0,0,0,0,0,0,-4.0653,-4.0657,-4.0716,-4.065,-4.0639,-4.0595,-4.0588,-4.0653,-4.0572,-4.0552,-4.0539,-4.0537,-4.0508,-4.0517,-4.0519,-4.0623,-4.0483,-4.0487,-4.049,-4.0492,-4.0855,-4.0862,0,0,0,0,0,0,-4.0666,-4.0658,-4.0717,-4.0715,-4.0627,-4.0601,-4.0595,-4.0617,-4.057,-4.0557,-4.0542,-4.0528,-4.0512,-4.0513,-4.0517,-4.0698,-4.0488,-4.0492,-4.0495,-4.0849,-4.0857,-4.0864,0,0,0,0,0,0,-4.0664,-4.0673,-4.0719,-4.0683,-4.0685,-4.061,-4.0637,-4.062,-4.0629,-4.0563,-4.0548,-4.0567,-4.0507,-4.051,-4.0601,-4.0695,-4.0495,-4.0499,-4.084,-4.0851,-4.0861,-4.1064,0,0,0,0,0,0,-4.0663,-4.0673,-4.0732,-4.0686,-4.0688,-4.0804,-4.0642,-4.0624,-4.0637,-4.0619,-4.0582,-4.057,-4.0502,-4.0595,-4.0605,-4.0697,-4.0502,-4.0832,-4.0845,-4.0857,-4.1048,-4.108,-4.1107,0,0,0,0,0,-4.066,-4.0791,-4.0736,-4.0744,-4.076,-4.0809,-4.0811,-4.073,-4.0645,-4.0704,-4.0662,-4.0571,-4.0683,-4.0606,-4.0616,-4.0711,-4.0825,-4.0841,-4.0856,-4.1035,-4.1074,-4.1106,0,0,0,0,0,0,-4.085,-4.0783,-4.0721,-4.084,-4.0832,-4.0779,-4.085,-4.0773,-4.0789,-4.0771,-4.0671,-4.0665,-4.077,-4.0749,-4.0665,-4.0861,-4.0739,-4.0757,-4.0871,-4.0907,-4.0936,-4.0939,-4.0506,0,0,0,0,0,-4.0906,-4.0951,-4.089,-4.1001,-4.1,-4.0927,-4.0945,-4.0884,-4.0871,-4.0867,-4.0831,-4.0823,-4.0856,-4.088,-4.0907,-4.1044,-4.1034,-4.1115,-4.1144,-4.1168,-4.1185,-4.1257,-4.1292,-4.0916,-4.0915,-4.0915,0,0,-4.1021,-4.099,-4.1025,-4.1039,-4.1025,-4.1075,-4.0925,-4.0984,-4.102,-4.0876,-4.0959,-4.0934,-4.0918,-4.1033,-4.1082,-4.1018,-4.1287,-4.1188,-4.1208,-4.1212,-4.1277,-4.1313,-4.1345,-4.0926,-4.0924,-4.0922,0,0,-4.1257,-4.1238,-4.1329,-4.1318,-4.13,-4.125,-4.1272,-4.1231,-4.1208,-4.129,-4.1183,-4.1225,-4.1285,-4.1278,-4.1283,-4.1518,-4.1435,-4.153,-4.1682,-4.1753,-4.1783,-4.1809,-4.1894,-4.1925,-4.1547,-4.1547,-4.1548,0,-4.1403,-4.1474,-4.1385,-4.1452,-4.1461,-4.1333,-4.1425,-4.1419,-4.1411,-4.1421,-4.135,-4.1422,-4.1402,-4.1515,-4.1572,-4.158,-4.1603,-4.1533,-4.1786,-4.1811,-4.1834,-4.1913,-4.1946,-4.1559,-4.1558,-4.1556,-4.1555,0,-4.1655,-4.1706,-4.1781,-4.1776,-4.1794,-4.1873,-4.1797,-4.1826,-4.1764,-4.1722,-4.1808,-4.178,-4.18,-4.1822,-4.1762,-4.1926,-4.1888,-4.1804,-4.1678,-4.1883,-4.1956,-4.1986,-4.1576,-4.1572,-4.1568,-4.1565,0,0,-4.2008,-4.1954,-4.1983,-4.198,-4.1951,-4.1988,-4.2062,-4.2081,-4.2108,-4.2107,-4.2167,-4.2221,-4.2142,-4.2148,-4.2086,-4.2149,-4.2338,-4.2056,-4.2054,-4.211,-4.2519,-4.2583,-4.262,-4.2283,-4.2288,-4.2293,-4.252,0,-4.2234,-4.2356,-4.2279,-4.2413,-4.246,-4.234,-4.2404,-4.2394,-4.2357,-4.2391,-4.2351,-4.2391,-4.2284,-4.2287,-4.2344,-4.2303,-4.2419,-4.2286,-4.2338,-4.2341,-4.2346,-4.2657,-4.2725,-4.2941,-4.2548,-4.2553,-4.2556,0,-4.2513,-4.2525,-4.2664,-4.2627,-4.2643,-4.2702,-4.2714,-4.2748,-4.2734,-4.2703,-4.2711,-4.2633,-4.2704,-4.2581,-4.2677,-4.2588,-4.2605,-4.2589,-4.2595,-4.2597,-4.2462,-4.2668,-4.3007,-4.3041,-4.2601,-4.2597,-4.2594,0,-4.2758,-4.2808,-4.2898,-4.2899,-4.2857,-4.2902,-4.2887,-4.2866,-4.2883,-4.2894,-4.2904,-4.2923,-4.2933,-4.295,-4.2881,-4.2798,-4.2987,-4.2858,-4.2964,-4.2966,-4.3009,-4.3007,-4.3356,-4.302,-4.302,-4.3019,-4.3018,0,-4.3019,-4.3109,-4.3008,-4.3063,-4.3161,-4.3072,-4.3171,-4.3143,-4.3127,-4.3175,-4.3073,-4.3121,-4.3025,-4.3064,-4.301,-4.3099,-4.3104,-4.3082,-4.3066,-4.3091,-4.3094,-4.3101,-4.3084,-4.3028,-4.3026,-4.3024,-4.3023,0,-4.3308,-4.3244,-4.3334,-4.3288,-4.3278,-4.3353,-4.3313,-4.3363,-4.3319,-4.3382,-4.3392,-4.3325,-4.3365,-4.3297,-4.3329,-4.3293,-4.3416,-4.3377,-4.3421,-4.341,-4.352,-4.3511,-4.3886,-4.3931,-4.3566,-4.357,-4.3573,0,-4.3478,-4.3545,-4.3506,-4.3531,-4.3522,-4.3563,-4.358,-4.3496,-4.3517,-4.3508,-4.3559,-4.3591,-4.3611,-4.3681,-4.3636,-4.366,-4.3621,-4.3751,-4.3624,-4.3648,-4.3624,-4.3621,-4.3628,-4.3777,-4.3782,-4.3785,-4.3788,0,-4.3788,-4.3753,-4.3781,-4.3799,-4.3821,-4.3831,-4.3833,-4.386,-4.3771,-4.3801,-4.3841,-4.3857,-4.389,-4.3923,-4.3936,-4.3921,-4.3841,-4.3829,-4.3855,-4.3881,-4.3903,-4.3893,-4.3492,-4.382,-4.3817,-4.3815,-4.3813,-4.3812,-4.4023,-4.4077,-4.4058,-4.4093,-4.4086,-4.4091,-4.4136,-4.4099,-4.413,-4.415,-4.4099,-4.4151,-4.4137,-4.4146,-4.414,-4.4181,-4.4123,-4.4161,-4.417,-4.4181,-4.4199,-4.3897,-4.4183,-4.4182,-4.4181,-4.418,-4.4179,0,-4.4327,-4.4309,-4.4342,-4.4349,-4.4377,-4.4299,-4.4298,-4.4327,-4.4374,-4.4367,-4.439,-4.4437,-4.4468,-4.4426,-4.4451,-4.4492,-4.4456,-4.4501,-4.4497,-4.4495,-4.4248,-4.4223,-4.453,-4.453,-4.453,-4.453,-4.453,-4.4529,-4.4489,-4.4576,-4.454,-4.4623,-4.4604,-4.4655,-4.4661,-4.4666,-4.466,-4.4717,-4.4743,-4.4715,-4.4694,-4.4717,-4.4743,-4.473,-4.4744,-4.4803,-4.4777,-4.4547,-4.4512,-4.448,-4.4456,-4.4806,-4.4807,-4.502,-4.5022,-4.5024]},{"header":{"parameterUnit":"m.s-1","parameterCategory":1,"la1":30.2991,"la2":30.254,"lo1":-89.0895,"lo2":-89.0444,"dy":0.0017,"dx":0.0017,"nx":28,"ny":28,"refTime":"2023-09-30T03:00:00:Z","depth":0,"parameterNumber":3,"parameterNumberName":"V-component_of_WINDS"},"data":[0,0,0,0,0,0,0,0,0,0,0,0,0,0,0,0,0,0,0,0,0,0,0,0,0,0,0,0,0,0,0,0,0,0,0,0,0,0,0,0,0,0,0,0,0,0,0,0,0,0,0,0,0,0,0,0,0,0,-1.8564,-1.8565,0,-1.8639,-1.8639,-1.864,-1.8648,-1.8647,-1.8646,-1.8646,-1.8719,-1.8721,-1.8724,0,0,0,0,0,0,0,0,0,0,0,0,0,-1.8424,-1.8427,-1.8564,-1.8565,-1.8566,-1.8639,-1.864,-1.8641,-1.8648,-1.8647,-1.8646,-1.8645,-1.8718,-1.8721,-1.8724,0,0,0,0,0,0,0,0,0,0,0,0,0,-1.849,-1.8427,-1.8564,-1.8578,-1.858,-1.8638,-1.864,-1.8641,-1.8648,-1.8647,-1.8646,-1.8645,-1.8717,-1.8721,-1.8725,-1.8772,0,0,-1.8737,-1.8739,0,0,0,0,0,0,0,0,-1.8486,-1.8495,-1.8575,-1.8578,-1.858,-1.8633,-1.8617,-1.8685,-1.8649,-1.8622,-1.8646,-1.8644,-1.8691,-1.8697,-1.8713,-1.8775,-1.8779,-1.8737,-1.874,-1.8741,-1.8742,0,0,0,0,0,0,0,-1.8482,-1.8492,-1.8593,-1.8576,-1.8579,-1.858,-1.8588,-1.863,-1.8662,-1.8625,-1.8625,-1.8634,-1.8692,-1.871,-1.8715,-1.878,-1.8737,-1.8741,-1.8743,-1.8745,-1.8883,-1.8884,0,0,0,0,0,0,-1.8475,-1.8488,-1.8591,-1.8596,-1.853,-1.8583,-1.8593,-1.8617,-1.8662,-1.8667,-1.8635,-1.8634,-1.8703,-1.871,-1.8718,-1.8775,-1.8741,-1.8745,-1.8747,-1.8882,-1.8883,-1.8885,0,0,0,0,0,0,-1.8472,-1.8484,-1.8588,-1.8542,-1.8556,-1.8587,-1.8614,-1.8619,-1.8637,-1.867,-1.8675,-1.8647,-1.8703,-1.8712,-1.8758,-1.8778,-1.8747,-1.875,-1.888,-1.8882,-1.8884,-1.8891,0,0,0,0,0,0,-1.8468,-1.8483,-1.8502,-1.8543,-1.8558,-1.8629,-1.8616,-1.8621,-1.8644,-1.8644,-1.8683,-1.8688,-1.8702,-1.8752,-1.8762,-1.8783,-1.8754,-1.8879,-1.8881,-1.8883,-1.8889,-1.8893,-1.8896,0,0,0,0,0,-1.8463,-1.8501,-1.8503,-1.8516,-1.8583,-1.863,-1.8638,-1.8655,-1.8645,-1.8664,-1.8685,-1.8687,-1.8774,-1.8757,-1.8768,-1.879,-1.8877,-1.888,-1.8883,-1.8888,-1.8892,-1.8896,0,0,0,0,0,0,-1.8461,-1.8506,-1.851,-1.8562,-1.8592,-1.8631,-1.8655,-1.866,-1.8692,-1.8691,-1.8709,-1.8718,-1.8763,-1.8781,-1.8762,-1.8838,-1.8825,-1.883,-1.8824,-1.8829,-1.8832,-1.8826,-1.8757,0,0,0,0,0,-1.8467,-1.8502,-1.854,-1.8582,-1.8597,-1.8624,-1.8645,-1.8655,-1.8687,-1.8699,-1.8724,-1.8753,-1.8787,-1.8809,-1.8842,-1.8892,-1.89,-1.8912,-1.8916,-1.8919,-1.8923,-1.8949,-1.8955,-1.8894,-1.8894,-1.8894,0,0,-1.8479,-1.8508,-1.8529,-1.8582,-1.8607,-1.8642,-1.8634,-1.8672,-1.8697,-1.8704,-1.875,-1.8769,-1.8803,-1.8851,-1.8873,-1.8867,-1.8941,-1.8922,-1.8924,-1.8927,-1.8953,-1.8958,-1.8963,-1.8896,-1.8896,-1.8895,0,0,-1.8518,-1.8545,-1.8582,-1.8607,-1.8645,-1.8662,-1.8671,-1.871,-1.8723,-1.8769,-1.8774,-1.8805,-1.8863,-1.8887,-1.8907,-1.8955,-1.8957,-1.8965,-1.8983,-1.9008,-1.9013,-1.9017,-1.9033,-1.9039,-1.8969,-1.8969,-1.8969,0,-1.8528,-1.8582,-1.8601,-1.8638,-1.8661,-1.867,-1.8707,-1.873,-1.8776,-1.8791,-1.8784,-1.8858,-1.8881,-1.8934,-1.8946,-1.8962,-1.8972,-1.896,-1.9011,-1.9016,-1.902,-1.9035,-1.9041,-1.897,-1.897,-1.897,-1.8969,0,-1.8592,-1.8629,-1.8655,-1.87,-1.8725,-1.8763,-1.8786,-1.8809,-1.8817,-1.8835,-1.8881,-1.8909,-1.8948,-1.8962,-1.897,-1.9016,-1.9011,-1.9007,-1.8994,-1.9026,-1.9041,-1.9047,-1.8971,-1.897,-1.897,-1.897,0,0,-1.8632,-1.8687,-1.8696,-1.8716,-1.8758,-1.8786,-1.8823,-1.8862,-1.8881,-1.8913,-1.8943,-1.8992,-1.8989,-1.9012,-1.9023,-1.9045,-1.908,-1.9039,-1.904,-1.9044,-1.913,-1.9132,-1.9139,-1.9082,-1.9083,-1.9084,-1.9127,0,-1.8675,-1.8742,-1.876,-1.8817,-1.885,-1.8859,-1.8891,-1.892,-1.8937,-1.8967,-1.8986,-1.902,-1.9014,-1.9028,-1.9051,-1.9071,-1.9097,-1.9068,-1.9109,-1.911,-1.9099,-1.9147,-1.9149,-1.9188,-1.9133,-1.9134,-1.9135,0,-1.8735,-1.8768,-1.8828,-1.8865,-1.888,-1.8909,-1.8945,-1.8974,-1.9006,-1.9017,-1.9042,-1.9051,-1.9088,-1.9074,-1.9125,-1.9105,-1.9122,-1.9135,-1.9137,-1.914,-1.9124,-1.915,-1.9201,-1.9207,-1.9144,-1.9144,-1.9143,0,-1.8756,-1.8816,-1.886,-1.8877,-1.8921,-1.8941,-1.896,-1.8991,-1.9013,-1.9045,-1.9059,-1.9094,-1.9113,-1.9139,-1.9157,-1.9145,-1.9206,-1.9193,-1.9215,-1.9214,-1.9226,-1.9225,-1.928,-1.924,-1.9239,-1.9239,-1.9239,0,-1.8802,-1.8838,-1.887,-1.8897,-1.8937,-1.8956,-1.8995,-1.9015,-1.9042,-1.9071,-1.9081,-1.9108,-1.913,-1.916,-1.9174,-1.9213,-1.9222,-1.9231,-1.9234,-1.9229,-1.9228,-1.924,-1.9237,-1.9241,-1.9241,-1.924,-1.924,0,-1.8833,-1.8856,-1.8903,-1.8942,-1.8952,-1.898,-1.9012,-1.9037,-1.9055,-1.9092,-1.9102,-1.9129,-1.9165,-1.9185,-1.923,-1.9239,-1.9282,-1.9285,-1.9272,-1.9273,-1.9293,-1.929,-1.9356,-1.9365,-1.932,-1.9321,-1.9321,0,-1.886,-1.8888,-1.893,-1.8951,-1.897,-1.9004,-1.9026,-1.9046,-1.9069,-1.9107,-1.9128,-1.9164,-1.9194,-1.9251,-1.9274,-1.9307,-1.931,-1.9331,-1.9315,-1.9309,-1.9309,-1.9306,-1.9309,-1.9333,-1.9333,-1.9334,-1.9334,0,-1.8906,-1.8916,-1.8948,-1.8985,-1.9012,-1.9041,-1.9071,-1.9087,-1.9111,-1.9136,-1.9173,-1.9197,-1.9242,-1.9278,-1.9314,-1.9332,-1.9337,-1.9339,-1.9345,-1.9341,-1.9332,-1.9336,-1.9278,-1.9337,-1.9337,-1.9337,-1.9336,-1.9336,-1.8935,-1.896,-1.8993,-1.9029,-1.9053,-1.908,-1.9105,-1.9126,-1.9158,-1.9197,-1.9207,-1.9245,-1.9276,-1.9324,-1.9344,-1.9373,-1.9369,-1.9379,-1.9381,-1.9383,-1.9383,-1.9328,-1.938,-1.938,-1.938,-1.938,-1.938,0,-1.898,-1.9001,-1.9034,-1.9075,-1.9103,-1.9106,-1.9139,-1.9161,-1.9195,-1.9224,-1.9253,-1.9295,-1.933,-1.9355,-1.939,-1.9409,-1.9412,-1.9417,-1.9415,-1.9419,-1.9385,-1.9376,-1.9414,-1.9414,-1.9414,-1.9414,-1.9414,-1.9414,-1.9006,-1.9049,-1.9062,-1.9116,-1.9137,-1.9176,-1.9194,-1.9218,-1.9241,-1.9287,-1.9316,-1.9333,-1.936,-1.9397,-1.9428,-1.9435,-1.9447,-1.9452,-1.9458,-1.9426,-1.9422,-1.9418,-1.9409,-1.9454,-1.9454,-1.949,-1.949,-1.949]}]]